Roseburg, OR

3:33 AM PST on November 14, 2019 (GMT -0800)
Roseburg Regional

Weather History for KRBG - September, 2019

Change the Weather History Date:

Monday, September 23, 2019

  Actual Average Record
Temperature  
Mean Temperature 64 °F 63 °F  
Max Temperature 74 °F 77 °F 100 °F (1943)
Min Temperature 54 °F 50 °F 37 °F (1993)
Degree Days  
Heating Degree Days 1 3  
Month to date heating degree days 28 38  
Since 1 July heating degree days 33 59  
Cooling Degree Days 0 1  
Month to date cooling degree days 70 59  
Year to date cooling degree days 673 470  
Growing Degree Days 14 (Base 50)    
Moisture  
Dew Point 53 °F    
Average Humidity 71    
Maximum Humidity 100    
Minimum Humidity 41    
Precipitation  
Precipitation 0.00 in 0.04 in 0.77 in (1948)
Month to date precipitation 2.15 0.66  
Year to date precipitation 24.92 20.31  
Sea Level Pressure  
Sea Level Pressure 30.21 in    
Wind  
Wind Speed 2 mph (North)    
Max Wind Speed 9 mph    
Max Gust Speed 12 mph    
Visibility 7 miles    
Events Fog    
T = Trace of Precipitation, MM = Missing Value Source: NWS Daily Summary

Daily Weather History Graph

Daily Weather History Graph

Search for Another Location

Airport or City:

Astronomy

Sep. 23, 2019 Rise Set
Actual Time 7:01 AM PDT 7:09 PM PDT
Civil Twilight 6:33 AM PDT 7:37 PM PDT
Nautical Twilight 5:59 AM PDT 8:10 PM PDT
Astronomical Twilight 5:25 AM PDT 8:44 PM PDT
Moon 12:39 AM PDT (9/23) 4:17 PM PDT (9/23)
Length of Visible Light 13h 04m
Length of Day
12h 07m
Waning Crescent, 32% of the Moon is Illuminated
Sep 23
Waning Crescent
Sep 28
New
Oct 5
First Quarter
Oct 13
Full
Oct 21
Last Quarter

Hourly Weather History & Observations

Time (PDT) Temp. Dew Point Humidity Pressure Visibility Wind Dir Wind Speed Gust Speed Precip Events Conditions
12:53 AM 57.0 °F 55.0 °F 93% 30.13 in 10.0 mi Calm Calm - N/A   Mostly Cloudy
1:14 AM 57.0 °F 55.0 °F 93% 30.13 in 10.0 mi Calm Calm - N/A   Overcast
1:27 AM 57.0 °F 55.0 °F 93% 30.13 in 9.0 mi Calm Calm - N/A   Mostly Cloudy
1:53 AM 55.9 °F 55.0 °F 97% 30.14 in 8.0 mi Calm Calm - N/A   Mostly Cloudy
2:53 AM 57.0 °F 55.0 °F 93% 30.14 in 9.0 mi Calm Calm - N/A   Overcast
3:53 AM 55.9 °F 55.0 °F 97% 30.15 in 3.0 mi Calm Calm - N/A   Overcast
4:00 AM 55.9 °F 55.0 °F 97% 30.15 in 1.8 mi Calm Calm - N/A   Overcast
4:18 AM 55.9 °F 55.0 °F 97% 30.16 in 0.5 mi Calm Calm - N/A Fog Fog
4:53 AM 55.9 °F 55.0 °F 97% 30.16 in 0.5 mi Calm Calm - N/A Fog Fog
5:10 AM 55.0 °F 54.0 °F 96% 30.16 in 0.2 mi Calm Calm - N/A Fog Fog
5:33 AM 55.0 °F 54.0 °F 96% 30.17 in 0.5 mi NNE 3.5 mph - N/A Fog Fog
5:53 AM 55.0 °F 54.0 °F 96% 30.18 in 1.5 mi Calm Calm - N/A   Overcast
6:31 AM 55.0 °F 54.0 °F 96% 30.20 in 0.8 mi NNE 3.5 mph - N/A   Mist
6:53 AM 55.0 °F 54.0 °F 96% 30.21 in 0.5 mi NNE 4.6 mph - N/A Fog Fog
7:07 AM 55.0 °F 54.0 °F 96% 30.21 in 0.2 mi NNE 3.5 mph - N/A Fog Fog
7:53 AM 55.0 °F 54.0 °F 96% 30.21 in 0.2 mi Calm Calm - N/A Fog Fog
8:30 AM 55.0 °F 54.0 °F 96% 30.24 in 0.8 mi North 3.5 mph - N/A   Mist
8:37 AM 55.0 °F 54.0 °F 96% 30.24 in 2.0 mi North 3.5 mph - N/A   Overcast
8:45 AM 55.0 °F 54.0 °F 96% 30.23 in 7.0 mi Calm Calm - N/A   Overcast
8:53 AM 55.0 °F 54.0 °F 96% 30.23 in 7.0 mi Calm Calm - N/A   Overcast
9:50 AM 57.2 °F 55.4 °F 94% 30.25 in 9.0 mi SW 4.6 mph - N/A   Overcast
9:53 AM 57.0 °F 55.0 °F 93% 30.25 in 10.0 mi WSW 3.5 mph - N/A   Overcast
10:53 AM 61.0 °F 54.0 °F 78% 30.26 in 10.0 mi Calm Calm - N/A   Mostly Cloudy
11:34 AM 63.0 °F 54.0 °F 72% 30.26 in 10.0 mi Calm Calm - N/A   Scattered Clouds
11:53 AM 64.9 °F 53.1 °F 65% 30.26 in 10.0 mi NNE 3.5 mph - N/A   Clear
12:48 PM 66.2 °F 53.6 °F 64% 30.25 in 10.0 mi WNW 4.6 mph - N/A   Mostly Cloudy
12:53 PM 66.0 °F 53.1 °F 63% 30.25 in 10.0 mi Variable 4.6 mph - N/A   Mostly Cloudy
1:12 PM 66.0 °F 52.0 °F 60% 30.25 in 10.0 mi Calm Calm - N/A   Overcast
1:53 PM 69.1 °F 51.1 °F 53% 30.23 in 10.0 mi Calm Calm - N/A   Clear
2:53 PM 71.1 °F 53.1 °F 53% 30.22 in 10.0 mi Variable 3.5 mph - N/A   Clear
3:53 PM 72.0 °F 52.0 °F 49% 30.22 in 10.0 mi SW 5.8 mph - N/A   Clear
4:53 PM 73.9 °F 48.9 °F 41% 30.21 in 10.0 mi North 5.8 mph - N/A   Clear
5:53 PM 73.0 °F 48.9 °F 42% 30.22 in 10.0 mi NW 5.8 mph - N/A   Clear
6:53 PM 71.1 °F 50.0 °F 47% 30.23 in 10.0 mi NNW 5.8 mph - N/A   Clear
7:53 PM 68.0 °F 52.0 °F 56% 30.23 in 10.0 mi NE 3.5 mph - N/A   Clear
8:53 PM 64.9 °F 53.1 °F 65% 30.25 in 10.0 mi Calm Calm - N/A   Clear
9:53 PM 62.1 °F 53.1 °F 72% 30.26 in 10.0 mi Calm Calm - N/A   Clear
10:53 PM 60.1 °F 52.0 °F 75% 30.27 in 10.0 mi Calm Calm - N/A   Clear
11:53 PM 59.0 °F 52.0 °F 78% 30.27 in 10.0 mi Calm Calm - N/A   Clear